Regional Weather Roundup
Issued by NWS Sterling, VA

Home | Current Version | Previous Version | Text Only | Print | Product List | Glossary Off
Versions: 1 2 3 4 5 6 7 8 9 10 11 12 13 14 15 16 17 18 19 20 21 22 23 24 25 26 27

000
ASUS41 KLWX 050610
RWRLWX

REGIONAL WEATHER ROUNDUP
NATIONAL WEATHER SERVICE BALTIMORE MD/WASHINGTON DC
200 AM EDT THU MAY 05 2016

Note: "FAIR" indicates few or no clouds below 12,000 feet
with no significant weather and/or obstructions to visibility.
 TC=TEMPERATURE CELSIUS

 * =Non NWS site. Station does not report precipitation (e.g. rain,
    snow, etc.), thunder, or fog.

DCZ001-MDZ009-015-VAZ040>042-051-053>054-050700-
WASHINGTON METRO

CITY           SKY/WX    TMP DP  RH WIND       PRES   REMARKS
WASHINGTON NAT CLOUDY    53  49  86 NE14      29.70S
DULLES         CLOUDY    52  49  89 E6        29.69F
ANDREWS AFB    CLOUDY    50  48  93 E9        29.68S FOG
FT BELVOIR     CLOUDY    53  49  87 VRB1      29.69F
QUANTICO       LGT RAIN  55  52  89 E10       29.69F
COLLEGE PARK*  CLOUDY    50  46  87 NE5       29.70S
LEESBURG*      CLOUDY    52  52 100 E3        29.70S
MANASSAS*      CLOUDY    54  50  87 NE3       29.68F
GAITHERSBURG*  CLOUDY    48  45  87 E6        29.73F

$$

MDZ006>007-011-014-050700-
BALTIMORE METRO

CITY           SKY/WX    TMP DP  RH WIND       PRES   REMARKS
BWI AIRPORT    DRIZZLE   50  48  93 E7        29.70S FOG
MD SCIENCE CTR   N/A     51  48  89 MISG      29.71S
MARTIN STATE   CLOUDY    52  50  93 NE3       29.72F FOG
ANNAPOLIS      CLOUDY    51  48  89 NE6       29.70S
FORT MEADE*    CLOUDY    50  46  87 E3        29.72F

$$

MDZ012-015-019>023-050700-
MARYLAND EASTERN SHORE

CITY           SKY/WX    TMP DP  RH WIND       PRES   REMARKS
OCEAN CITY     CLOUDY    49  47  93 NE10      29.68S
SALISBURY      CLOUDY    50  47  89 NE14      29.68S
CAMBRIDGE*     CLOUDY    50  46  87 NE6       29.69S
EASTON*        CLOUDY   N/A N/A N/A E3        29.74S

$$

MDZ017>025-050700-
SOUTHERN MARYLAND

CITY           SKY/WX    TMP DP  RH WIND       PRES   REMARKS
PATUXENT RIVER CLOUDY    51  48  89 NE10      29.67F
ST INIGOES     CLOUDY    53  50  89 NE9       29.67F
LEONARDTOWN*   CLOUDY    50  46  87 E3        29.69F

$$

MDZ003>005-050700-
NORTH CENTRAL MARYLAND

CITY           SKY/WX    TMP DP  RH WIND       PRES   REMARKS
FREDERICK*     CLOUDY    50  50 100 NE3       29.73S
HAGERSTOWN APT CLOUDY    52  47  83 E10       29.69S
WESTMINSTER*   RAIN      48  41  76 E3        29.70F

$$

MDZ501>502-050700-
WESTERN MARYLAND

CITY           SKY/WX    TMP DP  RH WIND       PRES   REMARKS
OAKLAND*       CLOUDY    43  41  93 NW3       29.68F
CUMBERLAND*    CLOUDY    54  54 100 CALM      29.71F

$$

VAZ025>031-050700-
SHENANDOAH VALLEY

CITY           SKY/WX    TMP DP  RH WIND       PRES   REMARKS
WINCHESTER*    DRIZZLE   52  52 100 E6        29.67S
FRONT ROYAL*   CLOUDY    52  52 100 E6        29.66S
LURAY*         CLOUDY    52  52 100 N5        29.65F
NEW MARKET*    CLOUDY    50  50  99 CALM      29.66S
STAUNTON*      CLOUDY    53  51  95 CALM      29.67F
WAYNESBORO*    CLOUDY    51  49  93 NW5       29.66S

$$

WVZ021-048>050-054>055-050700-
EASTERN WEST VIRGINIA PANHANDLE

CITY           SKY/WX    TMP DP  RH WIND       PRES   REMARKS
MARTINSBURG    CLOUDY    52  50  93 E7        29.68S FOG
PETERSBURG*    CLOUDY    54  49  84 CALM      29.67F

$$

VAZ036>039-050-050700-
CENTRAL FOOTHILLS

CITY           SKY/WX    TMP DP  RH WIND       PRES   REMARKS
CHARLOTTESVILL CLOUDY    55  52  89 NE8       29.65F
CULPEPER*      DRIZZLE   54  53  97 NE5       29.68F
ORANGE*        DRIZZLE   54  54 100 NE9       29.67F
GORDONSVILLE*  CLOUDY    54  53  98 NE3       29.65F
WARRENTON*     DRIZZLE   54  48  81 E3        29.68F

$$

VAZ055>057-050700-
NORTH AND CENTRAL PIEDMONT

CITY           SKY/WX    TMP DP  RH WIND       PRES   REMARKS
FREDERICKSBRG* CLOUDY    55  55 100 CALM      29.67S
STAFFORD*      DRIZZLE   53  51  94 NE5       29.72S

$$

NCZ024-NYZ072-PAZ021-071-VAZ022-071-050700-
OTHER REGIONAL OBSERVATIONS

CITY           SKY/WX    TMP DP  RH WIND       PRES   REMARKS
NEW YORK CITY  CLOUDY    48  41  76 E8G17     29.75F
PHILADELPHIA   CLOUDY    50  46  86 E9        29.73S
PITTSBURGH     CLOUDY    50  46  86 CALM      29.67S
ROANOKE        CLOUDY    54  45  71 NW6       29.66F
RICHMOND       DRIZZLE   54  53  97 NE9       29.65S
RALEIGH        PTCLDY    53  51  93 CALM      29.60F

$$

ANZ530>537-050700-
MARINE OBSERVATIONS

STATION/POSITION TIME  TEMP    WIND        PRES
                       AIR SEA DIR/SP/G
                 (UTC) (F)     (DEG/KT/KT) (MB)
THOMAS PT LIGHT  0600   51 59   60/ 11/ 12 1006.9F
BALT KEY BRIDGE  0500   51      70/  8/ 10 1005.9F
COVE POINT       0500   50      80/  9/ 12 1006.0S
LEWISETTA        0500   54 62   70/  9/ 13 1004.4F
SOLOMONS ISLAND  0500   52 60   50/  8/ 10   N/A
PINEY POINT      0500           90/  8/ 11   N/A

$$





USA.gov is the U.S. government's official web portal to all federal, state and local government web resources and services.